Wind_Speed
31 31 32 33 34 35 35 35 36 37 37 37 38 38 38 39 40 40 40 40 41 41 41 41 42 42 43 43 43 43 43 43 44 43 43 42 43 42 42 42 41 42 41
32 32 34 35 35 36 36 37 37 38 39 39 40 40 41 42 43 43 43 44 44 44 44 44 44 45 45 45 45 44 44 45 46 46 45 45 45 44 44 44 43 43 42
33 34 35 36 36 37 38 39 39 40 41 42 42 43 44 44 45 45 46 47 47 47 47 47 47 47 47 47 47 46 46 47 47 48 48 48 47 46 46 46 45 44 43
35 36 37 38 38 38 39 40 41 42 42 43 44 44 45 46 47 48 49 49 50 50 50 50 50 50 50 50 50 50 50 50 50 50 50 51 50 49 49 48 47 46 45
37 38 39 39 40 40 41 42 43 44 44 45 46 46 47 48 49 50 51 51 52 53 53 53 53 53 53 53 53 53 53 53 53 53 53 53 53 52 52 50 49 49 48
39 40 40 41 42 43 44 45 46 47 48 48 49 49 50 50 51 53 54 55 55 56 56 57 56 56 56 56 57 57 57 56 56 56 55 55 55 54 54 53 51 51 51
41 42 42 43 44 45 46 47 48 49 50 51 51 52 52 53 54 55 56 58 59 60 60 61 61 60 60 60 60 60 59 58 58 58 58 57 56 55 55 55 54 53 53
42 43 44 45 45 47 47 49 49 50 52 53 54 55 56 56 57 57 58 60 61 61 62 63 64 64 64 63 63 62 61 61 61 60 59 59 58 57 57 57 56 56 54
45 45 46 47 48 48 49 50 51 53 54 56 57 58 59 59 59 58 60 61 62 63 63 64 65 65 66 66 65 64 64 63 62 62 61 61 60 59 59 58 58 57 56
46 47 48 49 49 50 51 53 55 56 57 58 59 60 61 61 62 61 61 62 62 63 63 64 65 66 66 67 66 66 66 65 63 63 62 61 61 61 61 59 60 59 59
47 48 50 51 52 53 54 55 57 58 59 59 60 61 62 62 63 64 63 62 63 63 64 64 65 65 66 67 66 66 66 65 64 63 63 62 62 62 62 61 61 60 61
49 50 52 53 54 56 57 58 59 59 60 60 61 62 63 64 65 65 65 64 63 62 63 63 64 65 65 65 65 65 64 64 63 62 63 62 62 63 62 62 61 61 61
51 53 54 56 57 58 59 60 60 60 60 61 62 63 64 65 66 66 66 64 64 63 62 62 63 62 62 62 61 61 61 60 59 59 59 59 60 61 60 61 61 60 59
54 55 56 58 59 60 60 61 61 61 62 62 63 63 64 65 65 65 65 64 63 61 60 60 59 59 59 57 57 57 56 55 54 54 55 56 56 57 57 58 58 58 56
55 56 58 59 60 60 61 61 61 62 63 63 63 63 64 64 63 62 61 62 62 60 57 55 55 54 53 52 52 51 51 50 49 49 49 50 51 52 52 53 54 54 54
57 58 59 59 60 61 61 61 62 62 62 62 62 62 62 60 59 58 58 58 59 58 54 50 49 48 48 47 46 46 46 44 43 43 43 44 45 46 47 47 49 50 51
58 59 59 60 60 61 61 61 61 61 61 61 60 59 57 56 56 56 56 55 54 52 50 46 45 44 44 42 42 42 40 39 38 38 39 39 39 39 41 42 43 46 47
59 59 59 59 60 60 60 60 59 59 59 58 57 56 55 55 55 54 54 52 50 48 46 43 41 40 39 38 38 37 35 34 34 34 35 35 35 35 36 37 38 40 40
58 58 59 59 58 58 58 58 58 57 56 55 55 54 53 53 52 51 49 47 46 45 43 41 38 36 34 34 33 32 31 30 30 29 29 30 30 30 30 32 33 34 33
57 57 57 57 57 56 56 56 55 54 54 53 52 52 51 50 48 46 44 43 41 40 39 38 34 33 32 31 29 28 27 27 26 25 24 25 26 26 26 27 29 28 28
56 55 55 55 54 53 53 53 52 52 51 50 49 48 46 45 43 42 41 39 38 36 35 33 32 30 29 27 26 26 25 23 23 21 21 22 23 23 23 24 23 24 24
55 54 54 52 51 51 51 50 49 49 48 47 46 44 42 41 39 38 37 36 35 33 32 31 29 28 25 23 23 23 23 22 19 17 18 20 20 20 20 20 20 21 23
53 52 51 50 49 49 48 47 46 45 44 43 42 40 38 37 35 34 33 33 31 30 28 27 25 24 22 20 21 20 20 19 17 16 18 18 19 19 19 19 20 21 21
51 50 48 48 46 45 45 44 44 42 40 39 38 36 35 33 32 31 30 29 28 27 25 24 22 21 19 19 19 18 18 17 16 16 17 18 18 18 18 18 18 18 19
48 46 45 44 43 42 42 41 41 39 38 36 35 33 31 30 29 29 27 26 26 25 23 22 21 20 18 17 17 17 17 15 15 15 15 16 17 18 17 17 18 18 18
44 42 41 41 41 40 40 39 38 37 35 33 31 29 29 28 27 26 25 23 23 22 21 20 19 18 16 15 15 16 15 14 14 13 14 15 15 16 16 16 16 16 17
Wind_Direction
273 274 275 275 275 275 275 275 274 274 274 274 273 274 274 274 275 276 276 276 276 276 275 275 275 276 276 275 275 274 274 273 273 273 274 274 274 275 275 276 275 275 277
274 275 276 276 276 276 276 276 275 274 274 274 274 274 275 276 276 276 276 276 276 276 276 275 275 276 276 275 275 274 273 273 273 272 273 274 274 274 274 274 275 274 275
274 275 277 277 277 277 277 277 277 276 276 276 275 275 276 276 277 276 276 276 276 276 276 276 275 275 275 275 275 274 273 273 273 272 272 272 273 273 273 273 273 274 274
276 277 278 279 278 278 278 278 278 277 277 277 277 276 277 277 277 277 277 276 276 276 276 276 276 275 275 275 275 274 274 273 273 272 272 272 272 271 271 272 272 271 271
278 280 279 280 280 280 279 279 278 278 278 278 278 278 278 278 278 278 277 277 277 277 276 276 276 275 275 275 274 274 274 273 272 272 272 271 271 270 270 270 270 270 269
279 280 280 280 281 281 280 279 279 279 279 279 279 279 278 278 279 279 279 278 278 277 277 276 276 275 275 274 274 274 273 272 272 271 271 270 270 270 269 269 269 268 269
279 280 280 282 282 282 282 281 280 280 280 280 280 279 279 279 280 280 280 279 279 278 277 277 276 275 274 274 274 274 273 272 271 270 270 269 269 269 268 267 267 267 266
280 281 281 282 282 282 282 282 282 282 282 282 281 281 280 280 280 281 281 281 280 279 279 278 277 276 276 275 274 274 273 272 271 270 269 268 268 266 266 265 266 266 266
282 281 282 283 283 283 283 283 283 284 284 284 284 283 282 281 281 281 281 281 281 280 280 279 278 277 276 275 274 273 272 271 270 268 268 267 266 265 265 265 265 264 265
282 282 283 283 283 284 284 285 285 286 286 286 285 285 284 284 284 282 282 282 282 281 280 280 278 277 277 276 275 273 272 270 269 267 266 266 265 264 264 263 263 263 264
283 283 284 284 284 285 286 287 287 287 287 287 286 286 286 285 285 284 284 284 283 282 281 281 280 278 277 276 275 274 272 271 269 267 265 264 264 263 262 262 262 262 262
283 284 284 285 286 286 287 288 288 288 288 287 287 287 287 287 286 285 285 285 284 282 282 281 280 279 278 276 275 273 272 270 269 267 264 263 262 261 261 261 261 261 261
284 284 285 286 287 287 288 288 288 288 288 288 288 288 288 287 287 286 285 285 284 283 282 282 281 280 279 277 275 273 271 270 268 266 264 263 262 261 261 260 259 259 261
285 285 286 287 287 287 288 288 287 288 288 289 288 288 288 288 287 286 285 285 285 284 283 283 282 280 278 276 275 273 271 269 268 266 265 264 262 261 261 260 259 258 260
287 287 287 287 288 288 287 287 287 288 289 289 289 288 288 288 287 287 286 285 285 286 285 284 282 280 278 275 274 273 272 270 268 267 266 264 263 262 260 259 258 258 259
287 288 288 288 288 288 288 287 287 288 288 289 289 289 288 287 287 287 286 285 286 286 286 285 282 280 278 275 274 274 273 271 269 267 266 265 264 262 261 260 258 258 258
289 289 289 289 289 289 288 288 289 288 288 288 289 289 288 287 287 287 287 287 286 285 285 284 282 280 277 273 273 273 273 271 268 266 266 264 263 263 263 261 260 260 260
289 290 290 289 290 289 290 289 289 289 289 288 288 287 287 287 287 287 287 286 285 284 284 284 282 280 276 273 272 273 273 271 268 266 264 264 263 263 263 263 261 259 259
289 289 290 290 291 291 290 290 289 289 289 288 288 286 286 287 287 286 286 285 284 283 284 284 281 279 276 272 270 271 271 271 268 266 264 263 262 264 263 263 261 259 259
290 291 290 291 291 291 290 290 289 289 289 289 288 287 286 286 286 285 285 284 283 283 283 281 278 277 274 271 270 270 270 269 268 267 265 264 262 264 260 260 260 260 258
291 291 291 291 292 291 290 290 289 289 289 289 288 286 285 284 284 283 283 283 283 282 281 277 275 275 275 271 269 268 267 266 266 262 264 264 262 260 259 259 257 258 255
291 291 291 292 292 291 290 290 290 290 290 289 288 285 284 283 282 282 282 282 281 280 277 276 276 274 273 268 263 263 263 261 261 261 263 261 258 259 259 254 255 255 254
291 291 291 291 291 291 290 290 290 291 291 289 288 285 283 282 281 281 280 279 278 277 275 275 273 270 266 261 261 260 257 255 254 254 256 255 257 258 257 253 254 253 255
290 290 290 291 291 290 289 290 291 291 291 290 287 285 282 280 280 279 278 277 275 275 273 272 269 264 258 258 257 252 250 249 251 252 254 251 253 258 256 253 254 255 257
291 290 290 290 290 290 289 289 290 290 290 289 286 284 280 277 278 278 276 274 273 272 269 266 262 256 253 253 250 245 245 245 251 252 252 252 251 254 254 252 255 257 260
290 290 290 291 290 289 288 288 289 289 289 287 284 281 278 277 277 277 274 273 271 268 263 258 255 251 250 249 245 240 241 248 253 251 248 252 253 253 249 246 253 258 262
Height
5799 5798 5797 5796 5795 5794 5793 5793 5792 5791 5790 5789 5788 5787 5787 5786 5785 5784 5783 5782 5781 5780 5779 5778 5777 5776 5776 5775 5774 5773 5772 5771 5771 5770 5769 5769 5768 5767 5767 5766 5766 5765 5764
5791 5791 5790 5788 5787 5786 5785 5784 5783 5782 5781 5780 5779 5778 5777 5776 5775 5774 5773 5772 5771 5770 5769 5768 5767 5766 5765 5764 5763 5763 5762 5761 5761 5760 5759 5759 5759 5758 5757 5757 5756 5755 5755
5783 5783 5781 5780 5779 5778 5776 5775 5774 5773 5772 5770 5769 5768 5767 5766 5765 5764 5762 5761 5760 5759 5758 5757 5756 5755 5755 5754 5753 5752 5751 5750 5750 5749 5749 5749 5748 5748 5748 5747 5746 5745 5745
5775 5774 5773 5771 5770 5768 5767 5766 5764 5763 5761 5760 5759 5758 5756 5755 5754 5752 5751 5749 5748 5747 5746 5745 5744 5743 5743 5742 5741 5740 5739 5739 5738 5738 5737 5737 5737 5737 5736 5736 5736 5735 5735
5767 5765 5764 5762 5760 5759 5757 5756 5754 5752 5751 5749 5748 5747 5745 5744 5742 5741 5739 5737 5735 5734 5733 5732 5731 5730 5729 5729 5728 5728 5727 5726 5726 5725 5725 5725 5724 5724 5724 5724 5724 5724 5724
5758 5756 5754 5752 5751 5749 5747 5745 5743 5741 5739 5738 5736 5735 5733 5731 5730 5728 5726 5724 5722 5720 5718 5717 5716 5716 5715 5714 5714 5713 5713 5713 5712 5712 5712 5712 5711 5711 5711 5711 5712 5712 5712
5748 5746 5744 5742 5740 5738 5736 5734 5732 5730 5727 5725 5723 5722 5720 5718 5716 5714 5712 5709 5707 5704 5703 5701 5700 5699 5699 5699 5698 5698 5697 5697 5697 5697 5697 5697 5697 5697 5698 5698 5699 5699 5699
5738 5736 5734 5731 5729 5727 5724 5722 5720 5717 5715 5712 5709 5707 5706 5706 5703 5700 5697 5694 5691 5688 5686 5684 5682 5681 5681 5681 5681 5681 5680 5680 5681 5681 5681 5681 5682 5682 5683 5684 5685 5685 5685
5727 5725 5722 5720 5717 5715 5712 5710 5707 5704 5702 5699 5695 5691 5689 5689 5688 5686 5682 5678 5674 5671 5669 5666 5664 5662 5661 5661 5662 5662 5662 5662 5662 5663 5664 5664 5665 5667 5667 5668 5669 5670 5671
5716 5714 5711 5708 5705 5703 5700 5697 5694 5691 5687 5684 5681 5676 5673 5670 5668 5668 5667 5662 5658 5654 5651 5648 5645 5644 5642 5641 5641 5642 5642 5642 5643 5645 5646 5646 5648 5649 5651 5652 5653 5654 5655
5705 5702 5699 5696 5693 5690 5687 5684 5680 5676 5672 5669 5665 5662 5658 5654 5650 5647 5647 5646 5642 5637 5633 5629 5626 5624 5622 5621 5621 5621 5621 5621 5623 5625 5626 5627 5629 5630 5632 5634 5636 5637 5639
5693 5690 5687 5684 5680 5677 5673 5670 5666 5662 5658 5654 5650 5646 5642 5638 5634 5630 5627 5626 5624 5621 5616 5612 5608 5605 5603 5601 5601 5601 5600 5601 5603 5604 5606 5607 5609 5611 5614 5616 5618 5620 5622
5680 5677 5673 5670 5666 5663 5659 5655 5651 5647 5643 5639 5635 5630 5626 5621 5617 5612 5608 5606 5604 5603 5600 5595 5590 5586 5583 5582 5582 5581 5582 5583 5584 5585 5587 5588 5591 5593 5595 5598 5600 5603 5605
5667 5663 5659 5655 5651 5648 5644 5640 5636 5632 5628 5623 5619 5614 5609 5605 5600 5595 5591 5588 5585 5585 5583 5579 5574 5569 5566 5565 5564 5563 5565 5566 5567 5568 5569 5571 5573 5575 5577 5580 5583 5586 5588
5652 5648 5644 5640 5636 5632 5628 5624 5620 5616 5612 5607 5602 5597 5592 5588 5583 5579 5575 5571 5568 5566 5567 5564 5558 5554 5551 5549 5548 5548 5549 5551 5552 5552 5554 5555 5556 5559 5561 5564 5566 5569 5572
5638 5634 5629 5625 5621 5616 5612 5608 5604 5600 5596 5591 5586 5581 5576 5572 5568 5564 5560 5556 5552 5549 5549 5549 5544 5540 5538 5536 5535 5535 5536 5537 5538 5539 5540 5542 5543 5545 5547 5549 5552 5555 5558
5624 5619 5614 5610 5605 5601 5596 5592 5588 5584 5580 5575 5570 5566 5562 5557 5553 5550 5546 5543 5539 5536 5535 5535 5531 5528 5526 5525 5524 5524 5525 5526 5527 5528 5529 5530 5532 5533 5535 5537 5540 5543 5545
5609 5604 5599 5595 5590 5586 5581 5576 5573 5568 5564 5560 5555 5551 5547 5543 5540 5536 5533 5530 5527 5524 5522 5522 5521 5518 5516 5515 5515 5515 5515 5516 5517 5518 5519 5520 5522 5523 5525 5527 5529 5531 5534
5595 5590 5585 5580 5575 5571 5566 5561 5557 5553 5549 5545 5541 5537 5534 5529 5526 5523 5520 5518 5516 5513 5511 5510 5510 5508 5507 5506 5506 5507 5508 5508 5509 5510 5511 5512 5514 5515 5517 5519 5520 5522 5525
5581 5576 5571 5566 5561 5556 5552 5547 5543 5539 5535 5531 5528 5524 5520 5517 5514 5511 5509 5507 5505 5504 5502 5500 5500 5500 5499 5499 5499 5500 5501 5502 5502 5503 5504 5505 5507 5509 5510 5511 5513 5515 5517
5567 5562 5557 5552 5547 5543 5538 5534 5530 5526 5522 5518 5515 5511 5508 5505 5503 5501 5499 5498 5496 5494 5493 5492 5492 5491 5492 5491 5492 5493 5494 5495 5496 5497 5498 5500 5501 5503 5504 5506 5508 5510 5512
5553 5548 5543 5539 5535 5530 5526 5521 5517 5513 5510 5506 5503 5500 5497 5495 5493 5491 5490 5489 5488 5487 5486 5485 5485 5485 5485 5485 5486 5487 5488 5490 5491 5493 5494 5496 5497 5499 5500 5502 5504 5505 5507
5539 5535 5530 5526 5522 5518 5514 5510 5505 5501 5498 5495 5492 5489 5487 5486 5484 5483 5482 5481 5480 5479 5479 5478 5478 5479 5479 5479 5480 5482 5483 5485 5486 5488 5490 5492 5493 5495 5497 5498 5500 5501 5503
5526 5522 5518 5514 5510 5506 5502 5498 5495 5491 5488 5485 5482 5480 5479 5478 5476 5475 5475 5474 5474 5474 5473 5472 5473 5474 5474 5475 5476 5477 5479 5481 5483 5485 5487 5489 5490 5492 5494 5495 5496 5497 5499
5514 5510 5506 5502 5498 5495 5491 5487 5484 5481 5479 5476 5474 5472 5470 5470 5470 5469 5468 5468 5468 5468 5468 5467 5468 5469 5470 5471 5472 5474 5476 5478 5480 5482 5483 5485 5487 5489 5491 5492 5492 5493 5495
5502 5499 5495 5491 5487 5484 5481 5477 5474 5472 5470 5468 5466 5464 5464 5463 5463 5462 5462 5462 5463 5463 5463 5464 5465 5466 5467 5468 5470 5471 5473 5475 5477 5479 5480 5482 5484 5486 5488 5489 5489 5490 5490